Flag for Canada Weather past 2 weeks in Kenora, Ontario, Canada

Now
61 °F

Passing clouds.


Feels Like: 61 °F
Forecast: 58 / 77 °F
Wind: 6 mph from South

Location: Kenora

Current Time: Jul 1, 2015 at 1:48:32 AM

Latest Report: Jul 1, 2015 at 1:00 AM


Visibility: 15 mi

Pressure: 29.98 "Hg

Humidity: 77%

Dew point: 54 °F

Location of KenoraLocation

Historic Weather in Kenora — Graph

°F

Kenora temperature yesterday

Maximum temperature yesterday: 70 °F (at 3:00 PM)
Minimum temperature yesterday: 52 °F (at 6:00 AM)
Average temperature yesterday: 62 °F

Past Weeks' High & Low Weather Summary

 TemperatureHumidityPressure
High81 °F (Jun 26, 2:00 PM)100% (Jun 19, 5:00 PM)30.21 "Hg (Jun 19, 5:00 PM)
Low45 °F (Jun 18, 4:00 AM)34% (Jun 18, 6:00 PM)29.69 "Hg (Jun 22, 8:00 AM)
Average63 °F70%29.95 "Hg
* Reported Midnight between Jun 15 and Jun 16 — Midnight between Jun 30 and Jul 1, Kenora, Weather by CustomWeather, © 2015

Note: Actual official high and low records may vary slightly from our data, if they occured in-between our weather recording intervals... More about our weather records

Advertising

Kenora weather history for previous 24 hours

 ConditionsComfort  
Time TempWeatherWind HumidityBarometerVisibility
12:00 AM
Wed, Jul 1
61 °FPassing clouds.6 mph77%29.97 "Hg15 mi
11:00 PM
Tue, Jun 30
63 °FPassing clouds.6 mphN/A29.97 "Hg15 mi
10:00 PM63 °FPassing clouds.No windN/A29.96 "Hg15 mi
7:00 PM70 °FOvercast.6 mph50%29.96 "Hg15 mi
6:00 PM70 °FOvercast.5 mph53%29.97 "Hg15 mi
5:00 PM70 °FBroken clouds.8 mph53%29.98 "Hg15 mi
4:00 PM70 °FBroken clouds.6 mph53%29.98 "Hg15 mi
3:00 PM70 °FBroken clouds.2 mph53%29.98 "Hg15 mi
2:00 PM68 °FBroken clouds.3 mph53%29.99 "Hg15 mi
1:00 PM68 °FBroken clouds.8 mph53%30.00 "Hg15 mi
12:00 PM64 °FPartly sunny.3 mph64%30.01 "Hg15 mi
11:00 AM64 °FScattered clouds.7 mph60%30.01 "Hg12 mi
10:00 AM63 °FPassing clouds.3 mph64%30.03 "Hg15 mi
9:00 AM59 °FScattered clouds.8 mph68%30.03 "Hg12 mi
8:00 AM57 °FScattered clouds.6 mph82%30.03 "Hg12 mi
7:00 AM55 °FPartly sunny.5 mph88%30.02 "Hg12 mi
6:00 AM52 °FOvercast.3 mph100%30.01 "Hg15 mi
5:00 AM54 °FPassing clouds.No wind94%30.00 "Hg15 mi
4:00 AM55 °FClear.6 mph88%29.99 "Hg15 mi
3:00 AM55 °FClear.7 mph94%29.98 "Hg15 mi
2:00 AM55 °FClear.7 mph94%29.98 "Hg15 mi
1:00 AM57 °FClear.7 mph88%29.98 "Hg15 mi
Weather by CustomWeather, © 2015

See weather overviewHow to use our weather pages